Year,Month,Day,Hour,Minute,Value (Times are PST for barometer in hPa)
2016,10,15,00,00,997.43
2016,10,15,00,01,997.43
2016,10,15,00,02,997.43
2016,10,15,00,03,997.43
2016,10,15,00,04,997.43
2016,10,15,00,05,997.43
2016,10,15,00,06,997.43
2016,10,15,00,07,997.43
2016,10,15,00,08,997.43
2016,10,15,00,09,997.43
2016,10,15,00,10,997.43
2016,10,15,00,11,997.43
2016,10,15,00,12,997.43
2016,10,15,00,13,997.43
2016,10,15,00,14,997.43
2016,10,15,00,15,997.56
2016,10,15,00,16,997.56
2016,10,15,00,17,997.56
2016,10,15,00,18,997.56
2016,10,15,00,19,997.56
2016,10,15,00,20,997.56
2016,10,15,00,21,997.56
2016,10,15,00,22,997.56
2016,10,15,00,23,997.56
2016,10,15,00,24,997.56
2016,10,15,00,25,997.56
2016,10,15,00,26,997.56
2016,10,15,00,27,997.56
2016,10,15,00,28,997.56
2016,10,15,00,29,997.56
2016,10,15,00,30,997.63
2016,10,15,00,31,997.63
2016,10,15,00,32,997.63
2016,10,15,00,33,997.63
2016,10,15,00,34,997.63
2016,10,15,00,35,997.63
2016,10,15,00,36,997.63
2016,10,15,00,37,997.63
2016,10,15,00,38,997.63
2016,10,15,00,39,997.63
2016,10,15,00,40,997.63
2016,10,15,00,41,997.63
2016,10,15,00,42,997.63
2016,10,15,00,43,997.63
2016,10,15,00,44,997.63
2016,10,15,00,45,997.56
2016,10,15,00,46,997.56
2016,10,15,00,47,997.56
2016,10,15,00,48,997.56
2016,10,15,00,49,997.56
2016,10,15,00,50,997.56
2016,10,15,00,51,997.56
2016,10,15,00,52,997.56
2016,10,15,00,53,997.56
2016,10,15,00,54,997.56
2016,10,15,00,55,997.56
2016,10,15,00,56,997.56
2016,10,15,00,57,997.56
2016,10,15,00,58,997.56
2016,10,15,00,59,997.56
2016,10,15,01,00,997.76
2016,10,15,01,01,997.77
2016,10,15,01,02,997.77
2016,10,15,01,03,997.77
2016,10,15,01,04,997.77
2016,10,15,01,05,997.77
2016,10,15,01,06,997.77
2016,10,15,01,07,997.77
2016,10,15,01,08,997.77
2016,10,15,01,09,997.77
2016,10,15,01,10,997.77
2016,10,15,01,11,997.77
2016,10,15,01,12,997.77
2016,10,15,01,13,997.77
2016,10,15,01,14,997.77
2016,10,15,01,15,997.83
2016,10,15,01,16,997.83
2016,10,15,01,17,997.83
2016,10,15,01,18,997.83
2016,10,15,01,19,997.83
2016,10,15,01,20,997.83
2016,10,15,01,21,997.83
2016,10,15,01,22,997.83
2016,10,15,01,23,997.83
2016,10,15,01,24,997.83
2016,10,15,01,25,997.83
2016,10,15,01,26,997.83
2016,10,15,01,27,997.83
2016,10,15,01,28,997.83
2016,10,15,01,29,997.83
2016,10,15,01,30,997.87
2016,10,15,01,31,997.87
2016,10,15,01,32,997.87
2016,10,15,01,33,997.87
2016,10,15,01,34,997.87
2016,10,15,01,35,997.87
2016,10,15,01,36,997.87
2016,10,15,01,37,997.87
2016,10,15,01,38,997.87
2016,10,15,01,39,997.87
2016,10,15,01,40,997.87
2016,10,15,01,41,997.87
2016,10,15,01,42,997.87
2016,10,15,01,43,997.87
2016,10,15,01,44,997.87
2016,10,15,01,45,997.80
2016,10,15,01,46,997.80
2016,10,15,01,47,997.80
2016,10,15,01,48,997.80
2016,10,15,01,49,997.80
2016,10,15,01,50,997.80
2016,10,15,01,51,997.80
2016,10,15,01,52,997.80
2016,10,15,01,53,997.80
2016,10,15,01,54,997.80
2016,10,15,01,55,997.80
2016,10,15,01,56,997.80
2016,10,15,01,57,997.80
2016,10,15,01,58,997.80
2016,10,15,01,59,997.80
2016,10,15,02,00,997.77
2016,10,15,02,01,997.77
2016,10,15,02,02,997.77
2016,10,15,02,03,997.77
2016,10,15,02,04,997.77
2016,10,15,02,05,997.77
2016,10,15,02,06,997.77
2016,10,15,02,07,997.77
2016,10,15,02,08,997.77
2016,10,15,02,09,997.77
2016,10,15,02,10,997.77
2016,10,15,02,11,997.77
2016,10,15,02,12,997.77
2016,10,15,02,13,997.77
2016,10,15,02,14,997.77
2016,10,15,02,15,997.70
2016,10,15,02,16,997.70
2016,10,15,02,17,997.70
2016,10,15,02,18,997.70
2016,10,15,02,19,997.70
2016,10,15,02,20,997.70
2016,10,15,02,21,997.70
2016,10,15,02,22,997.70
2016,10,15,02,23,997.70
2016,10,15,02,24,997.70
2016,10,15,02,25,997.70
2016,10,15,02,26,997.70
2016,10,15,02,27,997.70
2016,10,15,02,28,997.70
2016,10,15,02,29,997.70
2016,10,15,02,30,997.63
2016,10,15,02,31,997.63
2016,10,15,02,32,997.63
2016,10,15,02,33,997.63
2016,10,15,02,34,997.63
2016,10,15,02,35,997.63
2016,10,15,02,36,997.63
2016,10,15,02,37,997.63
2016,10,15,02,38,997.63
2016,10,15,02,39,997.63
2016,10,15,02,40,997.63
2016,10,15,02,41,997.63
2016,10,15,02,42,997.63
2016,10,15,02,43,997.63
2016,10,15,02,44,997.63
2016,10,15,02,45,997.79
2016,10,15,02,46,997.80
2016,10,15,02,47,997.80
2016,10,15,02,48,997.80
2016,10,15,02,49,997.80
2016,10,15,02,50,997.80
2016,10,15,02,51,997.80
2016,10,15,02,52,997.80
2016,10,15,02,53,997.80
2016,10,15,02,54,997.80
2016,10,15,02,55,997.80
2016,10,15,02,56,997.80
2016,10,15,02,57,997.80
2016,10,15,02,58,997.80
2016,10,15,02,59,997.80
2016,10,15,03,00,997.67
2016,10,15,03,01,997.66
2016,10,15,03,02,997.66
2016,10,15,03,03,997.66
2016,10,15,03,04,997.66
2016,10,15,03,05,997.66
2016,10,15,03,06,997.66
2016,10,15,03,07,997.66
2016,10,15,03,08,997.66
2016,10,15,03,09,997.66
2016,10,15,03,10,997.66
2016,10,15,03,11,997.66
2016,10,15,03,12,997.66
2016,10,15,03,13,997.66
2016,10,15,03,14,997.66
2016,10,15,03,15,997.51
2016,10,15,03,16,997.50
2016,10,15,03,17,997.50
2016,10,15,03,18,997.50
2016,10,15,03,19,997.50
2016,10,15,03,20,997.50
2016,10,15,03,21,997.50
2016,10,15,03,22,997.50
2016,10,15,03,23,997.50
2016,10,15,03,24,997.50
2016,10,15,03,25,997.50
2016,10,15,03,26,997.50
2016,10,15,03,27,997.50
2016,10,15,03,28,997.50
2016,10,15,03,29,997.50
2016,10,15,03,30,997.37
2016,10,15,03,31,997.36
2016,10,15,03,32,997.36
2016,10,15,03,33,997.36
2016,10,15,03,34,997.36
2016,10,15,03,35,997.36
2016,10,15,03,36,997.36
2016,10,15,03,37,997.36
2016,10,15,03,38,997.36
2016,10,15,03,39,997.36
2016,10,15,03,40,997.36
2016,10,15,03,41,997.36
2016,10,15,03,42,997.36
2016,10,15,03,43,997.36
2016,10,15,03,44,997.36
2016,10,15,03,45,997.36
2016,10,15,03,46,997.36
2016,10,15,03,47,997.36
2016,10,15,03,48,997.36
2016,10,15,03,49,997.36
2016,10,15,03,50,997.36
2016,10,15,03,51,997.36
2016,10,15,03,52,997.36
2016,10,15,03,53,997.36
2016,10,15,03,54,997.36
2016,10,15,03,55,997.36
2016,10,15,03,56,997.36
2016,10,15,03,57,997.36
2016,10,15,03,58,997.36
2016,10,15,03,59,997.36
2016,10,15,04,00,997.36
2016,10,15,04,01,997.36
2016,10,15,04,02,997.36
2016,10,15,04,03,997.36
2016,10,15,04,04,997.36
2016,10,15,04,05,997.36
2016,10,15,04,06,997.36
2016,10,15,04,07,997.36
2016,10,15,04,08,997.36
2016,10,15,04,09,997.36
2016,10,15,04,10,997.36
2016,10,15,04,11,997.36
2016,10,15,04,12,997.36
2016,10,15,04,13,997.36
2016,10,15,04,14,997.36
2016,10,15,04,15,997.39
2016,10,15,04,16,997.39
2016,10,15,04,17,997.39
2016,10,15,04,18,997.39
2016,10,15,04,19,997.39
2016,10,15,04,20,997.39
2016,10,15,04,21,997.39
2016,10,15,04,22,997.39
2016,10,15,04,23,997.39
2016,10,15,04,24,997.39
2016,10,15,04,25,997.39
2016,10,15,04,26,997.39
2016,10,15,04,27,997.39
2016,10,15,04,28,997.39
2016,10,15,04,29,997.39
2016,10,15,04,30,997.27
2016,10,15,04,31,997.26
2016,10,15,04,32,997.26
2016,10,15,04,33,997.26
2016,10,15,04,34,997.26
2016,10,15,04,35,997.26
2016,10,15,04,36,997.26
2016,10,15,04,37,997.26
2016,10,15,04,38,997.26
2016,10,15,04,39,997.26
2016,10,15,04,40,997.26
2016,10,15,04,41,997.26
2016,10,15,04,42,997.26
2016,10,15,04,43,997.26
2016,10,15,04,44,997.26
2016,10,15,04,45,997.00
2016,10,15,04,46,996.99
2016,10,15,04,47,996.99
2016,10,15,04,48,996.99
2016,10,15,04,49,996.99
2016,10,15,04,50,996.99
2016,10,15,04,51,996.99
2016,10,15,04,52,996.99
2016,10,15,04,53,996.99
2016,10,15,04,54,996.99
2016,10,15,04,55,996.99
2016,10,15,04,56,996.99
2016,10,15,04,57,996.99
2016,10,15,04,58,996.99
2016,10,15,04,59,996.99
2016,10,15,05,00,996.92
2016,10,15,05,01,996.92
2016,10,15,05,02,996.92
2016,10,15,05,03,996.92
2016,10,15,05,04,996.92
2016,10,15,05,05,996.92
2016,10,15,05,06,996.92
2016,10,15,05,07,996.92
2016,10,15,05,08,996.92
2016,10,15,05,09,996.92
2016,10,15,05,10,996.92
2016,10,15,05,11,996.92
2016,10,15,05,12,996.92
2016,10,15,05,13,996.92
2016,10,15,05,14,996.92
2016,10,15,05,15,996.89
2016,10,15,05,16,996.89
2016,10,15,05,17,996.89
2016,10,15,05,18,996.89
2016,10,15,05,19,996.89
2016,10,15,05,20,996.89
2016,10,15,05,21,996.89
2016,10,15,05,22,996.89
2016,10,15,05,23,996.89
2016,10,15,05,24,996.89
2016,10,15,05,25,996.89
2016,10,15,05,26,996.89
2016,10,15,05,27,996.89
2016,10,15,05,28,996.89
2016,10,15,05,29,996.89
2016,10,15,05,30,996.76
2016,10,15,05,31,996.75
2016,10,15,05,32,996.75
2016,10,15,05,33,996.75
2016,10,15,05,34,996.75
2016,10,15,05,35,996.75
2016,10,15,05,36,996.75
2016,10,15,05,37,996.75
2016,10,15,05,38,996.75
2016,10,15,05,39,996.75
2016,10,15,05,40,996.75
2016,10,15,05,41,996.75
2016,10,15,05,42,996.75
2016,10,15,05,43,996.75
2016,10,15,05,44,996.75
2016,10,15,05,45,996.82
2016,10,15,05,46,996.82
2016,10,15,05,47,996.82
2016,10,15,05,48,996.82
2016,10,15,05,49,996.82
2016,10,15,05,50,996.82
2016,10,15,05,51,996.82
2016,10,15,05,52,996.82
2016,10,15,05,53,996.82
2016,10,15,05,54,996.82
2016,10,15,05,55,996.82
2016,10,15,05,56,996.82
2016,10,15,05,57,996.82
2016,10,15,05,58,996.82
2016,10,15,05,59,996.82
2016,10,15,06,00,996.72
2016,10,15,06,01,996.72
2016,10,15,06,02,996.72
2016,10,15,06,03,996.72
2016,10,15,06,04,996.72
2016,10,15,06,05,996.72
2016,10,15,06,06,996.72
2016,10,15,06,07,996.72
2016,10,15,06,08,996.72
2016,10,15,06,09,996.72
2016,10,15,06,10,996.72
2016,10,15,06,11,996.72
2016,10,15,06,12,996.72
2016,10,15,06,13,996.72
2016,10,15,06,14,996.72
2016,10,15,06,15,996.36
2016,10,15,06,16,996.34
2016,10,15,06,17,996.34
2016,10,15,06,18,996.34
2016,10,15,06,19,996.34
2016,10,15,06,20,996.34
2016,10,15,06,21,996.34
2016,10,15,06,22,996.34
2016,10,15,06,23,996.34
2016,10,15,06,24,996.34
2016,10,15,06,25,996.34
2016,10,15,06,26,996.34
2016,10,15,06,27,996.34
2016,10,15,06,28,996.34
2016,10,15,06,29,996.34
2016,10,15,06,30,996.28
2016,10,15,06,31,996.28
2016,10,15,06,32,996.28
2016,10,15,06,33,996.28
2016,10,15,06,34,996.28
2016,10,15,06,35,996.28
2016,10,15,06,36,996.28
2016,10,15,06,37,996.28
2016,10,15,06,38,996.28
2016,10,15,06,39,996.28
2016,10,15,06,40,996.28
2016,10,15,06,41,996.28
2016,10,15,06,42,996.28
2016,10,15,06,43,996.28
2016,10,15,06,44,996.28
2016,10,15,06,45,995.87
2016,10,15,06,46,995.87
2016,10,15,06,47,995.87
2016,10,15,06,48,995.87
2016,10,15,06,49,995.87
2016,10,15,06,50,995.87
2016,10,15,06,51,995.87
2016,10,15,06,52,995.87
2016,10,15,06,53,995.87
2016,10,15,06,54,995.87
2016,10,15,06,55,995.87
2016,10,15,06,56,995.87
2016,10,15,06,57,995.87
2016,10,15,06,58,995.87
2016,10,15,06,59,995.87
2016,10,15,07,00,995.78
2016,10,15,07,01,995.77
2016,10,15,07,02,995.77
2016,10,15,07,03,995.77
2016,10,15,07,04,995.77
2016,10,15,07,05,995.77
2016,10,15,07,06,995.77
2016,10,15,07,07,995.77
2016,10,15,07,08,995.77
2016,10,15,07,09,995.77
2016,10,15,07,10,995.77
2016,10,15,07,11,995.77
2016,10,15,07,12,995.77
2016,10,15,07,13,995.77
2016,10,15,07,14,995.77
2016,10,15,07,15,995.70
2016,10,15,07,16,995.70
2016,10,15,07,17,995.70
2016,10,15,07,18,995.70
2016,10,15,07,19,995.70
2016,10,15,07,20,995.70
2016,10,15,07,21,995.70
2016,10,15,07,22,995.70
2016,10,15,07,23,995.70
2016,10,15,07,24,995.70
2016,10,15,07,25,995.70
2016,10,15,07,26,995.70
2016,10,15,07,27,995.70
2016,10,15,07,28,995.70
2016,10,15,07,29,995.70
2016,10,15,07,30,995.33
2016,10,15,07,31,995.33
2016,10,15,07,32,995.33
2016,10,15,07,33,995.33
2016,10,15,07,34,995.33
2016,10,15,07,35,995.33
2016,10,15,07,36,995.33
2016,10,15,07,37,995.33
2016,10,15,07,38,995.33
2016,10,15,07,39,995.33
2016,10,15,07,40,995.33
2016,10,15,07,41,995.33
2016,10,15,07,42,995.33
2016,10,15,07,43,995.33
2016,10,15,07,44,995.33
2016,10,15,07,45,995.13
2016,10,15,07,46,995.12
2016,10,15,07,47,995.12
2016,10,15,07,48,995.12
2016,10,15,07,49,995.12
2016,10,15,07,50,995.12
2016,10,15,07,51,995.12
2016,10,15,07,52,995.12
2016,10,15,07,53,995.12
2016,10,15,07,54,995.12
2016,10,15,07,55,995.12
2016,10,15,07,56,995.12
2016,10,15,07,57,995.12
2016,10,15,07,58,995.12
2016,10,15,07,59,995.12
2016,10,15,08,00,994.86
2016,10,15,08,01,994.85
2016,10,15,08,02,994.85
2016,10,15,08,03,994.85
2016,10,15,08,04,994.85
2016,10,15,08,05,994.85
2016,10,15,08,06,994.85
2016,10,15,08,07,994.85
2016,10,15,08,08,994.85
2016,10,15,08,09,994.85
2016,10,15,08,10,994.85
2016,10,15,08,11,994.85
2016,10,15,08,12,994.85
2016,10,15,08,13,994.85
2016,10,15,08,14,994.85
2016,10,15,08,15,994.76
2016,10,15,08,16,994.75
2016,10,15,08,17,994.75
2016,10,15,08,18,994.75
2016,10,15,08,19,994.75
2016,10,15,08,20,994.75
2016,10,15,08,21,994.75
2016,10,15,08,22,994.75
2016,10,15,08,23,994.75
2016,10,15,08,24,994.75
2016,10,15,08,25,994.75
2016,10,15,08,26,994.75
2016,10,15,08,27,994.75
2016,10,15,08,28,994.75
2016,10,15,08,29,994.75
2016,10,15,08,30,994.68
2016,10,15,08,31,994.68
2016,10,15,08,32,994.68
2016,10,15,08,33,994.68
2016,10,15,08,34,994.68
2016,10,15,08,35,994.68
2016,10,15,08,36,994.68
2016,10,15,08,37,994.68
2016,10,15,08,38,994.68
2016,10,15,08,39,994.68
2016,10,15,08,40,994.68
2016,10,15,08,41,994.68
2016,10,15,08,42,994.68
2016,10,15,08,43,994.68
2016,10,15,08,44,994.68
2016,10,15,08,45,994.33
2016,10,15,08,46,994.31
2016,10,15,08,47,994.31
2016,10,15,08,48,994.31
2016,10,15,08,49,994.31
2016,10,15,08,50,994.31
2016,10,15,08,51,994.31
2016,10,15,08,52,994.31
2016,10,15,08,53,994.31
2016,10,15,08,54,994.31
2016,10,15,08,55,994.31
2016,10,15,08,56,994.31
2016,10,15,08,57,994.31
2016,10,15,08,58,994.31
2016,10,15,08,59,994.31
2016,10,15,09,00,994.12
2016,10,15,09,01,994.11
2016,10,15,09,02,994.11
2016,10,15,09,03,994.11
2016,10,15,09,04,994.11
2016,10,15,09,05,994.11
2016,10,15,09,06,994.11
2016,10,15,09,07,994.11
2016,10,15,09,08,994.11
2016,10,15,09,09,994.11
2016,10,15,09,10,994.11
2016,10,15,09,11,994.11
2016,10,15,09,12,994.11
2016,10,15,09,13,994.11
2016,10,15,09,14,994.11
2016,10,15,09,15,993.72
2016,10,15,09,16,993.70
2016,10,15,09,17,993.70
2016,10,15,09,18,993.70
2016,10,15,09,19,993.70
2016,10,15,09,20,993.70
2016,10,15,09,21,993.70
2016,10,15,09,22,993.70
2016,10,15,09,23,993.70
2016,10,15,09,24,993.70
2016,10,15,09,25,993.70
2016,10,15,09,26,993.70
2016,10,15,09,27,993.70
2016,10,15,09,28,993.70
2016,10,15,09,29,993.70
2016,10,15,09,30,993.30
2016,10,15,09,31,993.30
2016,10,15,09,32,993.30
2016,10,15,09,33,993.30
2016,10,15,09,34,993.30
2016,10,15,09,35,993.30
2016,10,15,09,36,993.30
2016,10,15,09,37,993.30
2016,10,15,09,38,993.30
2016,10,15,09,39,993.30
2016,10,15,09,40,993.30
2016,10,15,09,41,993.30
2016,10,15,09,42,993.30
2016,10,15,09,43,993.30
2016,10,15,09,44,993.30
2016,10,15,09,45,992.91
2016,10,15,09,46,992.89
2016,10,15,09,47,992.89
2016,10,15,09,48,992.89
2016,10,15,09,49,992.89
2016,10,15,09,50,992.89
2016,10,15,09,51,992.89
2016,10,15,09,52,992.89
2016,10,15,09,53,992.89
2016,10,15,09,54,992.89
2016,10,15,09,55,992.89
2016,10,15,09,56,992.89
2016,10,15,09,57,992.89
2016,10,15,09,58,992.89
2016,10,15,09,59,992.89
2016,10,15,10,00,992.54
2016,10,15,10,01,992.52
2016,10,15,10,02,992.52
2016,10,15,10,03,992.52
2016,10,15,10,04,992.52
2016,10,15,10,05,992.52
2016,10,15,10,06,992.52
2016,10,15,10,07,992.52
2016,10,15,10,08,992.52
2016,10,15,10,09,992.52
2016,10,15,10,10,992.52
2016,10,15,10,11,992.52
2016,10,15,10,12,992.52
2016,10,15,10,13,992.52
2016,10,15,10,14,992.52
2016,10,15,10,15,991.97
2016,10,15,10,16,991.94
2016,10,15,10,17,991.94
2016,10,15,10,18,991.94
2016,10,15,10,19,991.94
2016,10,15,10,20,991.94
2016,10,15,10,21,991.94
2016,10,15,10,22,991.94
2016,10,15,10,23,991.94
2016,10,15,10,24,991.94
2016,10,15,10,25,991.94
2016,10,15,10,26,991.94
2016,10,15,10,27,991.94
2016,10,15,10,28,991.94
2016,10,15,10,29,991.94
2016,10,15,10,30,991.46
2016,10,15,10,31,991.43
2016,10,15,10,32,991.43
2016,10,15,10,33,991.43
2016,10,15,10,34,991.43
2016,10,15,10,35,991.43
2016,10,15,10,36,991.43
2016,10,15,10,37,991.43
2016,10,15,10,38,991.43
2016,10,15,10,39,991.43
2016,10,15,10,40,991.43
2016,10,15,10,41,991.43
2016,10,15,10,42,991.43
2016,10,15,10,43,991.43
2016,10,15,10,44,991.43
2016,10,15,10,45,991.05
2016,10,15,10,46,991.03
2016,10,15,10,47,991.03
2016,10,15,10,48,991.03
2016,10,15,10,49,991.03
2016,10,15,10,50,991.03
2016,10,15,10,51,991.03
2016,10,15,10,52,991.03
2016,10,15,10,53,991.03
2016,10,15,10,54,991.03
2016,10,15,10,55,991.03
2016,10,15,10,56,991.03
2016,10,15,10,57,991.03
2016,10,15,10,58,991.03
2016,10,15,10,59,991.03
2016,10,15,11,00,990.64
2016,10,15,11,01,990.62
2016,10,15,11,02,990.62
2016,10,15,11,03,990.62
2016,10,15,11,04,990.62
2016,10,15,11,05,990.62
2016,10,15,11,06,990.62
2016,10,15,11,07,990.62
2016,10,15,11,08,990.62
2016,10,15,11,09,990.62
2016,10,15,11,10,990.62
2016,10,15,11,11,990.62
2016,10,15,11,12,990.62
2016,10,15,11,13,990.62
2016,10,15,11,14,990.62
2016,10,15,11,15,990.23
2016,10,15,11,16,990.21
2016,10,15,11,17,990.21
2016,10,15,11,18,990.21
2016,10,15,11,19,990.21
2016,10,15,11,20,990.21
2016,10,15,11,21,990.21
2016,10,15,11,22,990.21
2016,10,15,11,23,990.21
2016,10,15,11,24,990.21
2016,10,15,11,25,990.21
2016,10,15,11,26,990.21
2016,10,15,11,27,990.21
2016,10,15,11,28,990.21
2016,10,15,11,29,990.21
2016,10,15,11,30,989.67
2016,10,15,11,31,989.64
2016,10,15,11,32,989.64
2016,10,15,11,33,989.64
2016,10,15,11,34,989.64
2016,10,15,11,35,989.64
2016,10,15,11,36,989.64
2016,10,15,11,37,989.64
2016,10,15,11,38,989.64
2016,10,15,11,39,989.64
2016,10,15,11,40,989.64
2016,10,15,11,41,989.64
2016,10,15,11,42,989.64
2016,10,15,11,43,989.64
2016,10,15,11,44,989.64
2016,10,15,11,45,989.25
2016,10,15,11,46,989.23
2016,10,15,11,47,989.23
2016,10,15,11,48,989.23
2016,10,15,11,49,989.23
2016,10,15,11,50,989.23
2016,10,15,11,51,989.23
2016,10,15,11,52,989.23
2016,10,15,11,53,989.23
2016,10,15,11,54,989.23
2016,10,15,11,55,989.23
2016,10,15,11,56,989.23
2016,10,15,11,57,989.23
2016,10,15,11,58,989.23
2016,10,15,11,59,989.23
2016,10,15,12,00,988.81
2016,10,15,12,01,988.79
2016,10,15,12,02,988.79
2016,10,15,12,03,988.79
2016,10,15,12,04,988.79
2016,10,15,12,05,988.79
2016,10,15,12,06,988.79
2016,10,15,12,07,988.79
2016,10,15,12,08,988.79
2016,10,15,12,09,988.79
2016,10,15,12,10,988.79
2016,10,15,12,11,988.79
2016,10,15,12,12,988.79
2016,10,15,12,13,988.79
2016,10,15,12,14,988.79
2016,10,15,12,15,988.39
2016,10,15,12,16,988.35
2016,10,15,12,17,988.35
2016,10,15,12,18,988.35
2016,10,15,12,19,988.35
2016,10,15,12,20,988.35
2016,10,15,12,21,988.35
2016,10,15,12,22,988.35
2016,10,15,12,23,988.35
2016,10,15,12,24,988.35
2016,10,15,12,25,988.35
2016,10,15,12,26,988.35
2016,10,15,12,27,988.35
2016,10,15,12,28,988.35
2016,10,15,12,29,988.35
2016,10,15,12,30,987.45
2016,10,15,12,31,987.40
2016,10,15,12,32,987.40
2016,10,15,12,33,987.40
2016,10,15,12,34,987.40
2016,10,15,12,35,987.40
2016,10,15,12,36,987.40
2016,10,15,12,37,987.40
2016,10,15,12,38,987.40
2016,10,15,12,39,987.40
2016,10,15,12,40,987.40
2016,10,15,12,41,987.40
2016,10,15,12,42,987.40
2016,10,15,12,43,987.40
2016,10,15,12,44,987.40
2016,10,15,12,45,986.82
2016,10,15,12,46,986.79
2016,10,15,12,47,986.79
2016,10,15,12,48,986.79
2016,10,15,12,49,986.79
2016,10,15,12,50,986.79
2016,10,15,12,51,986.79
2016,10,15,12,52,986.79
2016,10,15,12,53,986.79
2016,10,15,12,54,986.79
2016,10,15,12,55,986.79
2016,10,15,12,56,986.79
2016,10,15,12,57,986.79
2016,10,15,12,58,986.79
2016,10,15,12,59,986.79
2016,10,15,13,00,986.02
2016,10,15,13,01,985.98
2016,10,15,13,02,985.98
2016,10,15,13,03,985.98
2016,10,15,13,04,985.98
2016,10,15,13,05,985.98
2016,10,15,13,06,985.98
2016,10,15,13,07,985.98
2016,10,15,13,08,985.98
2016,10,15,13,09,985.98
2016,10,15,13,10,985.98
2016,10,15,13,11,985.98
2016,10,15,13,12,985.98
2016,10,15,13,13,985.98
2016,10,15,13,14,985.98
2016,10,15,13,15,985.44
2016,10,15,13,16,985.41
2016,10,15,13,17,985.41
2016,10,15,13,18,985.41
2016,10,15,13,19,985.41
2016,10,15,13,20,985.41
2016,10,15,13,21,985.41
2016,10,15,13,22,985.41
2016,10,15,13,23,985.41
2016,10,15,13,24,985.41
2016,10,15,13,25,985.41
2016,10,15,13,26,985.41
2016,10,15,13,27,985.41
2016,10,15,13,28,985.41
2016,10,15,13,29,985.41
2016,10,15,13,30,985.28
2016,10,15,13,31,985.27
2016,10,15,13,32,985.27
2016,10,15,13,33,985.27
2016,10,15,13,34,985.27
2016,10,15,13,35,985.27
2016,10,15,13,36,985.27
2016,10,15,13,37,985.27
2016,10,15,13,38,985.27
2016,10,15,13,39,985.27
2016,10,15,13,40,985.27
2016,10,15,13,41,985.27
2016,10,15,13,42,985.27
2016,10,15,13,43,985.27
2016,10,15,13,44,985.27
2016,10,15,13,45,985.08
2016,10,15,13,46,985.07
2016,10,15,13,47,985.07
2016,10,15,13,48,985.07
2016,10,15,13,49,985.07
2016,10,15,13,50,985.07
2016,10,15,13,51,985.07
2016,10,15,13,52,985.07
2016,10,15,13,53,985.07
2016,10,15,13,54,985.07
2016,10,15,13,55,985.07
2016,10,15,13,56,985.07
2016,10,15,13,57,985.07
2016,10,15,13,58,985.07
2016,10,15,13,59,985.07
2016,10,15,14,00,984.24
2016,10,15,14,01,984.19
2016,10,15,14,02,984.19
2016,10,15,14,03,984.19
2016,10,15,14,04,984.19
2016,10,15,14,05,984.19
2016,10,15,14,06,984.19
2016,10,15,14,07,984.19
2016,10,15,14,08,984.19
2016,10,15,14,09,984.19
2016,10,15,14,10,984.19
2016,10,15,14,11,984.19
2016,10,15,14,12,984.19
2016,10,15,14,13,984.19
2016,10,15,14,14,984.19
2016,10,15,14,15,982.90
2016,10,15,14,16,982.83
2016,10,15,14,17,982.83
2016,10,15,14,18,982.83
2016,10,15,14,19,982.83
2016,10,15,14,20,982.83
2016,10,15,14,21,982.83
2016,10,15,14,22,982.83
2016,10,15,14,23,982.83
2016,10,15,14,24,982.83
2016,10,15,14,25,982.83
2016,10,15,14,26,982.83
2016,10,15,14,27,982.83
2016,10,15,14,28,982.83
2016,10,15,14,29,982.83
2016,10,15,14,30,982.22
2016,10,15,14,31,982.19
2016,10,15,14,32,982.19
2016,10,15,14,33,982.19
2016,10,15,14,34,982.19
2016,10,15,14,35,982.19
2016,10,15,14,36,982.19
2016,10,15,14,37,982.19
2016,10,15,14,38,982.19
2016,10,15,14,39,982.19
2016,10,15,14,40,982.19
2016,10,15,14,41,982.19
2016,10,15,14,42,982.19
2016,10,15,14,43,982.19
2016,10,15,14,44,982.19
2016,10,15,14,45,981.73
2016,10,15,14,46,981.71
2016,10,15,14,47,981.71
2016,10,15,14,48,981.71
2016,10,15,14,49,981.71
2016,10,15,14,50,981.71
2016,10,15,14,51,981.71
2016,10,15,14,52,981.71
2016,10,15,14,53,981.71
2016,10,15,14,54,981.71
2016,10,15,14,55,981.71
2016,10,15,14,56,981.71
2016,10,15,14,57,981.71
2016,10,15,14,58,981.71
2016,10,15,14,59,981.71
2016,10,15,15,00,981.10
2016,10,15,15,01,981.07
2016,10,15,15,02,981.07
2016,10,15,15,03,981.07
2016,10,15,15,04,981.07
2016,10,15,15,05,981.07
2016,10,15,15,06,981.07
2016,10,15,15,07,981.07
2016,10,15,15,08,981.07
2016,10,15,15,09,981.07
2016,10,15,15,10,981.07
2016,10,15,15,11,981.07
2016,10,15,15,12,981.07
2016,10,15,15,13,981.07
2016,10,15,15,14,981.07
2016,10,15,15,15,980.59
2016,10,15,15,16,980.56
2016,10,15,15,17,980.56
2016,10,15,15,18,980.56
2016,10,15,15,19,980.56
2016,10,15,15,20,980.56
2016,10,15,15,21,980.56
2016,10,15,15,22,980.56
2016,10,15,15,23,980.56
2016,10,15,15,24,980.56
2016,10,15,15,25,980.56
2016,10,15,15,26,980.56
2016,10,15,15,27,980.56
2016,10,15,15,28,980.56
2016,10,15,15,29,980.56
2016,10,15,15,30,980.07
2016,10,15,15,31,980.02
2016,10,15,15,32,980.02
2016,10,15,15,33,980.02
2016,10,15,15,34,980.02
2016,10,15,15,35,980.02
2016,10,15,15,36,980.02
2016,10,15,15,37,980.02
2016,10,15,15,38,980.02
2016,10,15,15,39,980.02
2016,10,15,15,40,980.02
2016,10,15,15,41,980.02
2016,10,15,15,42,980.02
2016,10,15,15,43,980.02
2016,10,15,15,44,980.02
2016,10,15,15,45,979.71
2016,10,15,15,46,979.68
2016,10,15,15,47,979.68
2016,10,15,15,48,979.68
2016,10,15,15,49,979.68
2016,10,15,15,50,979.68
2016,10,15,15,51,979.68
2016,10,15,15,52,979.68
2016,10,15,15,53,979.68
2016,10,15,15,54,979.68
2016,10,15,15,55,979.68
2016,10,15,15,56,979.68
2016,10,15,15,57,979.68
2016,10,15,15,58,979.68
2016,10,15,15,59,979.68
2016,10,15,16,00,979.42
2016,10,15,16,01,979.41
2016,10,15,16,02,979.41
2016,10,15,16,03,979.41
2016,10,15,16,04,979.41
2016,10,15,16,05,979.41
2016,10,15,16,06,979.41
2016,10,15,16,07,979.41
2016,10,15,16,08,979.41
2016,10,15,16,09,979.41
2016,10,15,16,10,979.41
2016,10,15,16,11,979.41
2016,10,15,16,12,979.41
2016,10,15,16,13,979.41
2016,10,15,16,14,979.41
2016,10,15,16,15,978.99
2016,10,15,16,16,978.97
2016,10,15,16,17,978.97
2016,10,15,16,18,978.97
2016,10,15,16,19,978.97
2016,10,15,16,20,978.97
2016,10,15,16,21,978.97
2016,10,15,16,22,978.97
2016,10,15,16,23,978.97
2016,10,15,16,24,978.97
2016,10,15,16,25,978.97
2016,10,15,16,26,978.97
2016,10,15,16,27,978.97
2016,10,15,16,28,978.97
2016,10,15,16,29,978.97
2016,10,15,16,30,978.09
2016,10,15,16,31,977.99
2016,10,15,16,32,977.99
2016,10,15,16,33,977.99
2016,10,15,16,34,977.99
2016,10,15,16,35,977.99
2016,10,15,16,36,977.99